Content
SEND FEEDBACK

Daily
Averages
Monthly
Summary
United States of America

ST. LOUIS, MISSOURI


Home > North America > United States > Missouri
Elevation: 163 meters     Latitude: 38 45N     Longitude: 090 22W

WEATHER
 
SELECT A DAY
Number of Records: 196,500;   Date Range: 1/1/95 - 8/30/14
 
SHARE

PRINT THIS DATA

[ ← Previous Day ]
WEATHER ALMANAC - 17 MAY, 2013
[ Next Day → ]
[ °F ]   °C
Weather ElementAverageHighLow
Temperature21 °C25 °C (3:54 pm)16.7 °C (1:54 am)
Dewpoint17.2 °C19 °C (1:51 pm)15 °C (1:54 am)
Humidity79.3 %93 % (8:54 pm)64 % (5:54 pm)
Barometer1013.2 hPa1014.2 hPa (10:54 am)1012.2 hPa (3:54 am)
Wind Speed4.7 km/h14.8 km/h (2:54 pm)
Weather ElementAverage
Visibility15.3 km
Wind DirectionENE (59.6 °)

Weather ElementTotal
Precipitation3.05 mm
Cooling Degree Days2.6 (Base 18.3)
Growing Degree Days10.9 (Base 10)
Averaged from 25 records on 17 May, 2013
WEATHER CONDITIONS BREAKOUT
WIND DIRECTION BREAKOUT
WEATHER BY HOUR - 17 MAY, 2013
[ °F ]   °C
Local TimeTemperatureDewpointHumidityBarometerVisibilityWind DirectionWind SpeedGust SpeedPrecipitationEventsConditions
1:54 AM16.7 °C15 °C90 %1012.9 hPa16.1 kmCalmMostly Cloudy
2:54 AM17.8 °C15.6 °C87 %1012.5 hPa16.1 kmCalmOvercast
3:54 AM18.3 °C15.6 °C84 %1012.2 hPa16.1 kmCalm0 mmOvercast
4:54 AM18.3 °C15.6 °C84 %1012.5 hPa16.1 kmESE (120°)7.4 km/h0.25 mmOvercast
5:54 AM18.3 °C15.6 °C84 %1012.9 hPa16.1 kmSSE (160°)7.4 km/hMostly Cloudy
6:54 AM19 °C16 °C83 %1013.9 hPa16.1 kmCalmOvercast
7:54 AM20 °C16.1 °C78 %1013.5 hPa16.1 kmVariable5.6 km/hMostly Cloudy
8:54 AM21.1 °C17.2 °C78 %1013.9 hPa16.1 kmCalmMostly Cloudy
9:54 AM22.8 °C17.8 °C73 %1013.9 hPa16.1 kmESE (120°)9.3 km/hMostly Cloudy
10:54 AM22.8 °C17.2 °C71 %1014.2 hPa16.1 kmSouth (190°)11.1 km/hOvercast
11:54 AM22.8 °C17.2 °C71 %1013.9 hPa16.1 kmSSE (150°)7.4 km/hOvercast
12:39 PM23 °C17 °C69 %1014.2 hPa16.1 kmSouth (180°)5.6 km/hOvercast
12:54 PM21.7 °C17.8 °C78 %1013.9 hPa9.7 kmEast (100°)11.1 km/h0 mmRainLight Rain
1:51 PM22 °C19 °C83 %1013.9 hPa14.5 kmEast (80°)11.1 km/h2.79 mmOvercast
1:54 PM22 °C19 °C83 %1013.9 hPa16.1 kmEast (80°)11.1 km/hOvercast
2:54 PM23.9 °C18.3 °C71 %1012.9 hPa16.1 kmSSE (150°)14.8 km/hMostly Cloudy
3:54 PM25 °C18.3 °C66 %1012.5 hPa16.1 kmCalmOvercast
4:54 PM24.4 °C17.8 °C67 %1012.2 hPa16.1 kmCalmOvercast
5:54 PM25 °C17.8 °C64 %1012.2 hPa16.1 kmVariable9.3 km/hMostly Cloudy
6:54 PM22.8 °C18.3 °C76 %1012.2 hPa16.1 kmSSE (160°)5.6 km/h0 mmOvercast
7:54 PM22.8 °C17.8 °C73 %1012.5 hPa16.1 kmCalmOvercast
8:54 PM19.4 °C18.3 °C93 %1013.2 hPa16.1 kmCalmClear
9:54 PM18.9 °C17.8 °C93 %1013.5 hPa11.3 kmCalmScattered Clouds
10:54 PM18.3 °C17.2 °C93 %1013.9 hPa11.3 kmCalmClear
11:54 PM18.3 °C16.7 °C90 %1014.2 hPa14.5 kmCalmClear
Hourly data recorded from KSUS, located 0 kilometers away from St. Louis, Missouri







STORIES FROM OUR PARTNERS